This demonstration page uses our WeatherBlox Daily Observations layout. Learn more.

Left ArrowRight Arrow

39.51506, -84.39828

Hourly Observations for May 5, 2017

Temp ( °F °C ) Dew Point ( °F °C ) Humidity (%) Winds ( mph kmh ) Pressure ( in mb ) Visibility ( mi km ) Precip ( " mm )
12:15 am 00:15 Cloudy with Rain 55 12.5 49 9.5 82 82 NNE 8 13 29.62 1003 7 11 N/A
12:35 am 00:35 Cloudy with Drizzle 55 12.5 49 9.5 82 82 NNE 8 13 29.62 1003 10 16 N/A
12:55 am 00:55 Cloudy with Drizzle 55 12.5 49 9.5 82 82 NNE 9 15 29.62 1003 10 16 N/A
1:15 am 01:15 Cloudy with Drizzle 55 12.5 49 9.6 83 83 N 9 15 29.59 1002 7 11 N/A
1:35 am 01:35 Cloudy 55 12.5 49 9.6 83 83 N 7 11 29.62 1003 10 16 N/A
1:55 am 01:55 Cloudy 55 12.5 49 9.6 83 83 N 8 13 29.62 1003 10 16 N/A
2:15 am 02:15 Cloudy 55 12.5 49 9.5 82 82 N 10 17 29.59 1002 10 16 N/A
2:35 am 02:35 Cloudy 55 12.5 49 9.5 82 82 N 14 22 29.59 1002 10 16 N/A
2:55 am 02:55 Cloudy 55 12.5 49 9.5 82 82 N 13 20 29.59 1002 10 16 N/A
3:15 am 03:15 Cloudy 55 12.5 49 9.5 82 82 N 14 22 29.56 1001 10 16 N/A
3:35 am 03:35 Cloudy 53 11.6 48 8.7 83 83 N 10 17 29.56 1001 10 16 N/A
3:55 am 03:55 Cloudy with Drizzle 52 11 47 8.1 82 82 N 10 17 29.59 1002 10 16 N/A
4:15 am 04:15 Cloudy with Drizzle 52 11 47 8.2 83 83 N 10 17 29.59 1002 7 11 N/A
4:35 am 04:35 Cloudy with Rain 51 10.4 46 7.6 83 83 N 14 22 29.56 1001 7 11 N/A
4:55 am 04:55 Cloudy with Drizzle 50 9.9 45 7.1 83 83 N 14 22 29.53 1000 7 11 N/A
5:15 am 05:15 Cloudy 49 9.6 44 6.8 83 83 N 12 19 29.53 1000 10 16 N/A
5:35 am 05:35 Cloudy 49 9.6 44 6.6 82 82 N 16 26 29.53 1000 7 11 N/A
5:55 am 05:55 Cloudy with Rain 49 9.6 44 6.6 82 82 N 15 24 29.50 999 4 6 N/A
6:15 am 06:15 Cloudy with Drizzle 49 9.6 44 6.6 82 82 N 17 28 29.53 1000 5 8 N/A
6:35 am 06:35 Cloudy with Drizzle 49 9.6 44 6.8 83 83 N 16 26 29.53 1000 5 8 N/A
6:55 am 06:55 Cloudy with Haze 49 9.6 44 6.8 83 83 N 16 26 29.53 1000 4 6 N/A
7:15 am 07:15 Cloudy with Light Snow 49 9.6 44 6.8 83 83 N 16 26 29.50 999 2 3 N/A
7:35 am 07:35 Cloudy with Light Snow 49 9.6 44 6.8 83 83 N 18 30 29.50 999 2 3 N/A
7:55 am 07:55 Windy with Snow Likely 49 9.6 44 6.8 83 83 N 20 31 29.47 998 2 3 N/A
8:15 am 08:15 Cloudy with Haze 49 9.6 44 6.8 83 83 N 15 24 29.47 998 5 8 N/A
8:35 am 08:35 Cloudy 49 9.6 44 6.8 83 83 NNE 10 17 29.53 1000 7 11 N/A
8:55 am 08:55 Cloudy with Light Snow 49 9.6 44 6.7 82 82 N 15 24 29.53 1000 1 1 N/A
9:15 am 09:15 Cloudy with Light Snow 49 9.6 44 6.8 83 83 N 14 22 29.53 1000 1 2 N/A
9:35 am 09:35 Windy with Snow Likely 49 9.6 44 6.9 83 83 N 20 31 29.50 999 1 2 N/A
9:55 am 09:55 Cloudy with Light Snow 49 9.6 44 6.8 83 83 N 15 24 29.50 999 1 2 N/A
10:15 am 10:15 Cloudy with Light Snow 47 8.3 42 5.5 83 83 N 16 26 29.50 999 2 3 N/A
10:35 am 10:35 Cloudy with Light Snow 49 9.5 44 6.6 82 82 N 15 24 29.50 999 3 4 N/A
10:55 am 10:55 Cloudy with Light Snow 49 9.6 44 6.6 82 82 N 16 26 29.50 999 3 5 N/A
11:15 am 11:15 Cloudy with Light Snow 49 9.6 44 6.6 82 82 N 15 24 29.50 999 7 11 N/A
11:35 am 11:35 Cloudy 49 9.6 43 6.2 80 80 N 14 22 29.50 999 10 16 N/A
11:55 am 11:55 Cloudy 49 9.6 43 6.1 79 79 N 18 30 29.50 999 10 16 N/A
12:15 pm 12:15 Cloudy 49 9.6 43 6.2 80 80 N 18 30 29.53 1000 10 16 N/A
12:35 pm 12:35 Cloudy 49 9.6 43 6.3 80 80 N 14 22 29.53 1000 7 11 N/A
12:55 pm 12:55 Cloudy with Light Snow 49 9.6 44 6.5 81 81 N 15 24 29.53 1000 2 3 N/A
1:15 pm 13:15 Cloudy with Haze 49 9.6 43 6.1 79 79 N 16 26 29.56 1001 4 6 N/A
1:35 pm 13:35 Cloudy with Light Snow 49 9.6 43 6.2 80 80 N 16 26 29.56 1001 3 5 N/A
1:55 pm 13:55 Cloudy with Light Snow 49 9.6 43 6.2 80 80 N 17 28 29.56 1001 3 5 N/A
2:15 pm 14:15 Cloudy with Haze 49 9.6 43 6.1 79 79 N 10 17 29.56 1001 5 8 N/A
2:35 pm 14:35 Cloudy with Haze 49 9.6 43 6.3 80 80 N 14 22 29.56 1001 4 6 N/A
2:55 pm 14:55 Cloudy with Haze 49 9.6 43 6.2 80 80 N 10 17 29.59 1002 3 5 N/A
3:15 pm 15:15 Cloudy with Haze 49 9.6 43 6.3 80 80 N 14 22 29.59 1002 3 5 N/A
3:35 pm 15:35 Cloudy with Haze 49 9.6 44 6.5 81 81 N 16 26 29.59 1002 3 5 N/A
3:55 pm 15:55 Cloudy with Haze 49 9.6 44 6.5 81 81 N 15 24 29.59 1002 3 5 N/A
4:15 pm 16:15 Cloudy with Haze 49 9.6 44 6.5 81 81 N 14 22 29.59 1002 3 4 N/A
4:35 pm 16:35 Cloudy with Haze 49 9.6 44 6.6 82 82 N 15 24 29.59 1002 3 5 N/A
4:55 pm 16:55 Cloudy with Haze 49 9.6 44 6.5 81 81 N 13 20 29.59 1002 4 6 N/A
5:15 pm 17:15 Cloudy with Haze 49 9.6 44 6.5 81 81 N 13 20 29.62 1003 3 5 N/A
5:35 pm 17:35 Cloudy with Haze 49 9.6 44 6.6 82 82 N 15 24 29.62 1003 2 3 N/A
5:55 pm 17:55 Cloudy with Haze 49 9.6 44 6.5 81 81 N 15 24 29.62 1003 3 4 N/A
6:15 pm 18:15 Cloudy 49 9.6 43 6.1 79 79 N 16 26 29.65 1004 7 11 N/A
6:35 pm 18:35 Cloudy with Haze 49 9.6 43 6.3 80 80 NNW 14 22 29.65 1004 4 6 N/A
6:55 pm 18:55 Cloudy with Light Snow 49 9.6 44 6.5 81 81 NNW 12 19 29.65 1004 2 3 N/A
7:15 pm 19:15 Cloudy with Light Snow 49 9.6 43 6.3 80 80 NNW 16 26 29.65 1004 3 5 N/A
7:35 pm 19:35 Cloudy with Light Snow 49 9.6 43 6.3 80 80 N 18 30 29.68 1005 5 8 N/A
7:55 pm 19:55 Cloudy 49 9.6 43 5.9 78 78 NNW 21 33 29.68 1005 7 11 N/A
8:15 pm 20:15 Cloudy with Light Snow 49 9.6 42 5.3 75 75 N 16 26 29.68 1005 7 11 N/A
8:35 pm 20:35 Cloudy with Light Snow 49 9.6 42 5.6 76 76 N 12 19 29.68 1005 7 11 N/A
8:55 pm 20:55 Cloudy with Light Snow 49 9.6 42 5.6 76 76 N 10 17 29.68 1005 10 16 N/A
9:15 pm 21:15 Cloudy 49 9.6 43 6 78 78 N 6 9 29.71 1006 10 16 N/A
9:35 pm 21:35 Cloudy 49 9.6 43 6 78 78 N 5 7 29.71 1006 10 16 N/A
9:55 pm 21:55 Partly Cloudy 49 9.6 43 6 78 78 NW 3 6 29.71 1006 10 16 N/A
10:15 pm 22:15 Partly Cloudy 49 9.6 43 6.1 79 79 N N/A 29.68 1005 10 16 N/A
10:35 pm 22:35 Partly Cloudy 49 9.6 43 6.3 80 80 NW 3 6 29.71 1006 10 16 N/A
10:55 pm 22:55 Clear 49 9.6 43 6 78 78 WNW 6 9 29.71 1006 10 16 N/A
11:15 pm 23:15 Clear 49 9.6 42 5.8 77 77 W 5 7 29.71 1006 10 16 N/A
11:35 pm 23:35 Mostly Cloudy 49 9.6 42 5.7 77 77 N N/A 29.71 1006 10 16 N/A
11:55 pm 23:55 Cloudy 49 9.6 40 4.7 72 72 NW 6 9 29.71 1006 10 16 N/A

Powered by AerisWeather